Flag for Germany Weather past 2 weeks in Ilmenau, Thuringia, Germany

Now
48 °F

Clear.


Feels Like: 46 °F
Forecast: 44 / 62 °F
Wind: 6 mph from Southwest

Location: Erfurt-Bindersleben

Current Time: Apr 26, 2015 at 4:50:26 AM

Latest Report: Apr 26, 2015 at 4:20 AM


Visibility: 10 mi

Pressure: 29.80 "Hg

Humidity: 87%

Dew point: 45 °F

Location of IlmenauLocation

Historic Weather in Ilmenau — Graph

°F

Ilmenau temperature yesterday

Maximum temperature yesterday: 64 °F (at 11:50 AM)
Minimum temperature yesterday: 48 °F (at 4:20 AM)
Average temperature yesterday: 57 °F

Past Weeks' High & Low Weather Summary

 TemperatureHumidityPressure
High73 °F (Apr 15, 3:50 PM)100% (Apr 23, 12:50 AM)30.42 "Hg (Apr 23, 12:50 AM)
Low28 °F (Apr 19, 6:20 AM)21% (Apr 21, 6:20 PM)29.77 "Hg (Apr 25, 3:50 PM)
Average50 °F60%30.14 "Hg
* Reported Apr 11 3:20 AM — Apr 26 3:20 AM, Ilmenau, Weather by CustomWeather, © 2015

Note: Actual official high and low records may vary slightly from our data, if they occured in-between our weather recording intervals... More about our weather records

Advertising

Ilmenau weather history for previous 24 hours

 ConditionsComfort  
Time TempWeatherWind HumidityBarometerVisibility
3:20 AM
Sun, Apr 26
48 °FClear.6 mph94%29.80 "Hg10 mi
2:50 AM50 °FClear.9 mph94%29.80 "Hg10 mi
2:20 AM48 °FClear.8 mph94%29.80 "Hg10 mi
1:50 AM48 °FClear.9 mph94%29.80 "Hg10 mi
1:20 AM50 °FClear.10 mph88%29.80 "Hg10 mi
12:50 AM52 °FClear.9 mph88%29.80 "Hg10 mi
12:20 AM52 °FPassing clouds.8 mph88%29.80 "HgN/A
11:20 PM
Sat, Apr 25
55 °FPassing clouds.6 mph82%29.80 "HgN/A
10:50 PM55 °FPassing clouds.10 mph82%29.80 "HgN/A
10:20 PM55 °FPassing clouds.9 mph82%29.80 "HgN/A
9:50 PM55 °FLight rain. Passing clouds.10 mph77%29.80 "HgN/A
9:20 PM57 °FMore clouds than sun.7 mph72%29.80 "HgN/A
8:50 PM57 °FMore clouds than sun.10 mph67%29.80 "HgN/A
8:20 PM59 °FMore clouds than sun.15 mph63%29.77 "HgN/A
7:50 PM59 °FMore clouds than sun.10 mph63%29.77 "HgN/A
7:20 PM59 °FMore clouds than sun.13 mph63%29.77 "HgN/A
6:50 PM61 °FBroken clouds.12 mph59%29.77 "HgN/A
6:20 PM61 °FLight rain. Broken clouds.15 mph55%29.77 "HgN/A
5:50 PM63 °FPartly sunny.13 mph52%29.77 "HgN/A
5:20 PM63 °FBroken clouds.10 mph52%29.77 "HgN/A
4:50 PM63 °FBroken clouds.9 mph49%29.77 "HgN/A
4:20 PM64 °FBroken clouds.8 mph52%29.77 "HgN/A
3:50 PM63 °FSunny.13 mph49%29.77 "Hg10 mi
3:20 PM61 °FSunny.12 mph52%29.80 "Hg10 mi
2:50 PM61 °FSunny.13 mph48%29.80 "Hg10 mi
2:20 PM61 °FSunny.13 mph45%29.80 "Hg10 mi
1:50 PM63 °FSunny.10 mph37%29.80 "Hg10 mi
1:20 PM64 °FSunny.12 mph34%29.80 "Hg10 mi
12:50 PM63 °FSunny.9 mph42%29.80 "Hg10 mi
12:20 PM63 °FSunny.9 mph37%29.80 "Hg10 mi
11:50 AM64 °FSunny.9 mph37%29.80 "Hg10 mi
11:20 AM63 °FSunny.10 mph39%29.80 "Hg10 mi
10:50 AM63 °FSunny.10 mph39%29.80 "Hg10 mi
10:20 AM63 °FSunny.8 mph39%29.80 "Hg10 mi
9:50 AM61 °FSunny.9 mph45%29.80 "Hg10 mi
9:20 AM59 °FSunny.10 mph48%29.83 "Hg10 mi
8:50 AM55 °FSunny.9 mph55%29.83 "Hg10 mi
8:20 AM54 °FSunny.8 mph54%29.83 "Hg10 mi
7:50 AM54 °FSunny.9 mph47%29.83 "Hg10 mi
7:20 AM52 °FSunny.10 mph50%29.83 "Hg10 mi
6:50 AM52 °FClear.10 mph50%29.83 "Hg10 mi
6:20 AM50 °FClear.10 mph50%29.83 "Hg10 mi
5:20 AM48 °FClear.10 mph54%29.83 "Hg10 mi
4:50 AM48 °FClear.10 mph58%29.83 "Hg10 mi
4:20 AM48 °FClear.10 mph58%29.83 "Hg10 mi
Weather by CustomWeather, © 2015

See weather overviewHow to use our weather pages